Galliano, LA

3:21 AM CST on November 22, 2017 (GMT -0600)
Galliano

Weather History for KGAO - January, 2013

Change the Weather History Date:

Monday, January 21, 2013

  Actual Average (KHUM) Record (KHUM)
Temperature  
Mean Temperature 56 °F -  
Max Temperature 68 °F 59 °F 81 °F (1938)
Min Temperature 44 °F 41 °F 13 °F (1985)
Degree Days  
Heating Degree Days 9    
Growing Degree Days 6 (Base 50)    
Moisture  
Dew Point 45 °F    
Average Humidity 73    
Maximum Humidity 100    
Minimum Humidity 40    
Precipitation  
Precipitation 0.00 in - - ()
Sea Level Pressure  
Sea Level Pressure 30.18 in    
Wind  
Wind Speed 3 mph (NNW)    
Max Wind Speed 14 mph    
Max Gust Speed 17 mph    
Visibility 8 miles    
Events      
Averages and records for this station are not official NWS values.
T = Trace of Precipitation, MM = Missing Value Source: NWS Daily Summary

Daily Weather History Graph

Daily Weather History Graph

Search for Another Location

Airport or City:

Trip Planner

Search our weather history database for the weather conditions in past years. The results will help you decide how hot, cold, wet, or windy it might be!

Date:

Astronomy

Jan. 21, 2013 Rise Set
Actual Time 6:55 AM CST 5:30 PM CST
Civil Twilight 6:29 AM CST 5:55 PM CST
Nautical Twilight 6:00 AM CST 6:24 PM CST
Astronomical Twilight 5:32 AM CST 6:52 PM CST
Moon 1:11 PM CST (1/21) 2:22 AM CST (1/21)
Length of Visible Light 11h 25m
Length of Day
10h 34m
Waxing Gibbous, 75% of the Moon is Illuminated
Jan 21
Waxing Gibbous
Jan 26
Full
Feb 3
Last Quarter
Feb 10
New
Feb 17
First Quarter

Hourly Weather History & Observations

Time (CST) Temp. Windchill Dew Point Humidity Pressure Visibility Wind Dir Wind Speed Gust Speed Precip Events Conditions
12:15 AM 46.4 °F - 44.6 °F 93% 30.16 in 10.0 mi Calm Calm - N/A   Unknown
12:35 AM 46.4 °F - 46.4 °F 100% 30.15 in 7.0 mi Calm Calm - N/A   Unknown
12:55 AM 46.4 °F - 46.4 °F 100% 30.15 in 7.0 mi Calm Calm - N/A   Unknown
1:15 AM 46.4 °F - 44.6 °F 93% 30.13 in 10.0 mi Calm Calm - N/A   Unknown
1:35 AM 46.4 °F - 44.6 °F 93% 30.13 in 7.0 mi Calm Calm - N/A   Unknown
1:55 AM 46.4 °F - 44.6 °F 93% 30.13 in 10.0 mi Calm Calm - N/A   Unknown
2:15 AM 46.4 °F - 46.4 °F 100% 30.14 in 3.0 mi Calm Calm - N/A   Mist
2:35 AM 44.6 °F - 44.6 °F 100% 30.15 in 3.0 mi Calm Calm - N/A   Mist
2:55 AM 46.4 °F - 46.4 °F 100% 30.15 in 1.5 mi Calm Calm - N/A   Mist
3:15 AM 46.4 °F 44.3 °F 46.4 °F 100% 30.16 in 0.8 mi WSW 4.6 mph - N/A   Mist
3:35 AM 44.6 °F 42.2 °F 44.6 °F 100% 30.16 in 2.5 mi WNW 4.6 mph - N/A   Mist
3:55 AM 46.4 °F 44.3 °F 46.4 °F 100% 30.15 in 5.0 mi WNW 4.6 mph - N/A   Mist
4:15 AM 46.4 °F - 46.4 °F 100% 30.15 in 10.0 mi Calm Calm - N/A   Unknown
4:35 AM 48.2 °F - 46.4 °F 93% 30.15 in 10.0 mi Calm Calm - N/A   Unknown
4:55 AM 48.2 °F - 46.4 °F 93% 30.15 in 10.0 mi West 3.5 mph - N/A   Unknown
5:15 AM 46.4 °F - 46.4 °F 100% 30.15 in 10.0 mi Calm Calm - N/A   Unknown
5:35 AM 48.2 °F - 46.4 °F 93% 30.15 in 10.0 mi Calm Calm - N/A   Unknown
5:55 AM 46.4 °F 45.2 °F 46.4 °F 100% 30.15 in 10.0 mi WNW 3.5 mph - N/A   Unknown
6:15 AM 46.4 °F 44.3 °F 44.6 °F 93% 30.16 in 10.0 mi NW 4.6 mph - N/A   Unknown
6:35 AM 48.2 °F - 44.6 °F 87% 30.16 in 10.0 mi Calm Calm - N/A   Unknown
6:55 AM 48.2 °F - 46.4 °F 93% 30.17 in 10.0 mi Calm Calm - N/A   Unknown
7:15 AM 50.0 °F - 46.4 °F 87% 30.18 in 10.0 mi NW 6.9 mph - N/A   Unknown
7:35 AM 50.0 °F - 46.4 °F 87% 30.19 in 10.0 mi Calm Calm - N/A   Unknown
7:55 AM 50.0 °F - 46.4 °F 87% 30.20 in 10.0 mi NNW 3.5 mph - N/A   Unknown
8:15 AM 51.8 °F - 46.4 °F 82% 30.21 in 10.0 mi NW 4.6 mph - N/A   Unknown
8:35 AM 53.6 °F - 48.2 °F 82% 30.22 in 10.0 mi NW 6.9 mph - N/A   Unknown
8:55 AM 55.4 °F - 48.2 °F 77% 30.22 in 10.0 mi NNW 9.2 mph - N/A   Unknown
9:15 AM 59.0 °F - 48.2 °F 67% 30.22 in 10.0 mi NNW 11.5 mph - N/A   Unknown
9:35 AM 60.8 °F - 46.4 °F 59% 30.23 in 10.0 mi North 10.4 mph - N/A   Unknown
9:55 AM 60.8 °F - 46.4 °F 59% 30.23 in 10.0 mi NNW 12.7 mph - N/A   Unknown
10:15 AM 62.6 °F - 42.8 °F 48% 30.23 in 10.0 mi NNW 13.8 mph - N/A   Unknown
10:35 AM 62.6 °F - 42.8 °F 48% 30.22 in 10.0 mi NNW 11.5 mph - N/A   Unknown
10:55 AM 64.4 °F - 42.8 °F 45% 30.22 in 10.0 mi North 11.5 mph - N/A   Unknown
11:15 AM 64.4 °F - 41.0 °F 42% 30.22 in 7.0 mi North 11.5 mph - N/A   Unknown
11:35 AM 66.2 °F - 42.8 °F 43% 30.21 in 1.2 mi North 10.4 mph - N/A   Haze
11:55 AM 66.2 °F - 42.8 °F 43% 30.20 in 1.2 mi North 10.4 mph 17.3 mph N/A   Haze
12:15 PM 68.0 °F - 42.8 °F 40% 30.20 in 3.0 mi North 9.2 mph - N/A   Haze
12:35 PM 66.2 °F - 42.8 °F 43% 30.19 in 1.0 mi North 9.2 mph - N/A   Haze
12:55 PM 66.2 °F - 42.8 °F 43% 30.17 in 2.0 mi North 9.2 mph - N/A   Haze
1:15 PM 66.2 °F - 41.0 °F 40% 30.17 in 2.0 mi North 8.1 mph - N/A   Haze
1:35 PM 66.2 °F - 41.0 °F 40% 30.16 in 4.0 mi North 8.1 mph - N/A   Haze
1:55 PM 66.2 °F - 41.0 °F 40% 30.16 in 4.0 mi North 6.9 mph - N/A   Haze
2:15 PM 66.2 °F - 41.0 °F 40% 30.15 in 4.0 mi North 8.1 mph - N/A   Haze
2:35 PM 66.2 °F - 41.0 °F 40% 30.15 in 4.0 mi NNE 10.4 mph - N/A   Haze
2:55 PM 66.2 °F - 42.8 °F 43% 30.15 in 2.5 mi North 8.1 mph - N/A   Haze
3:15 PM 66.2 °F - 41.0 °F 40% 30.15 in 10.0 mi North 9.2 mph - N/A   Unknown
3:35 PM 66.2 °F - 41.0 °F 40% 30.16 in 2.5 mi North 8.1 mph - N/A   Haze
3:55 PM 64.4 °F - 42.8 °F 45% 30.17 in 0.8 mi NNE 5.8 mph - N/A   Haze
4:15 PM 64.4 °F - 44.6 °F 49% 30.17 in 1.5 mi NNW 11.5 mph - N/A   Haze
4:35 PM 62.6 °F - 44.6 °F 52% 30.17 in 10.0 mi NNW 10.4 mph - N/A   Unknown
4:55 PM 62.6 °F - 44.6 °F 52% 30.18 in 10.0 mi NNW 8.1 mph - N/A   Unknown
5:15 PM 60.8 °F - 44.6 °F 55% 30.18 in 10.0 mi NNW 5.8 mph - N/A   Unknown
5:35 PM 59.0 °F - 44.6 °F 59% 30.19 in 10.0 mi NNW 4.6 mph - N/A   Unknown
5:55 PM 57.2 °F - 46.4 °F 67% 30.19 in 10.0 mi NNW 3.5 mph - N/A   Unknown
6:15 PM 59.0 °F - 46.4 °F 63% 30.19 in 10.0 mi NNW 3.5 mph - N/A   Unknown
6:35 PM 59.0 °F - 46.4 °F 63% 30.19 in 10.0 mi Calm Calm - N/A   Unknown
6:55 PM 55.4 °F - 44.6 °F 67% 30.20 in 10.0 mi Calm Calm - N/A   Unknown
7:15 PM 55.4 °F - 46.4 °F 72% 30.19 in 10.0 mi Calm Calm - N/A   Unknown
7:35 PM 53.6 °F - 46.4 °F 77% 30.20 in 10.0 mi Calm Calm - N/A   Unknown
7:55 PM 50.0 °F - 46.4 °F 87% 30.20 in 10.0 mi East 3.5 mph - N/A   Unknown
8:15 PM 53.6 °F - 44.6 °F 72% 30.21 in 10.0 mi Calm Calm - N/A   Unknown
8:35 PM 50.0 °F - 46.4 °F 87% 30.21 in 10.0 mi Calm Calm - N/A   Unknown
8:55 PM 50.0 °F - 46.4 °F 87% 30.21 in 10.0 mi Calm Calm - N/A   Unknown
9:15 PM 50.0 °F - 46.4 °F 87% 30.21 in 10.0 mi Calm Calm - N/A   Unknown
9:35 PM 50.0 °F - 46.4 °F 87% 30.21 in 10.0 mi Calm Calm - N/A   Unknown
9:55 PM 50.0 °F - 46.4 °F 87% 30.21 in 10.0 mi Calm Calm - N/A   Unknown
10:15 PM 50.0 °F - 46.4 °F 87% 30.21 in 10.0 mi Calm Calm - N/A   Unknown
10:35 PM 50.0 °F - 46.4 °F 87% 30.21 in 10.0 mi Calm Calm - N/A   Unknown
10:55 PM 50.0 °F - 46.4 °F 87% 30.20 in 10.0 mi Calm Calm - N/A   Unknown
11:55 PM 50.0 °F - 46.4 °F 87% 30.20 in 10.0 mi Calm Calm - N/A   Unknown